Volver al catálogo

STARLINK-34610

ActivoComunicacionesVLEO
NORAD 65034·PAYLOAD·🇺🇸 United States

Lanzado Jul 30, 2025 desde Cape Canaveral Space Force Station

Loading…

Próximos Pases (próximas 24 horas)

TLE

ActualizadoSource: CelesTrak SupGP

Época: Sep 15, 2026, 02:37 UTC

1 65034C 25161V   26258.10951389  .00038984  00000+0  11520-2 0  2582
2 65034  53.1569 132.6773 0001361  85.0353 312.6161 15.34365177    16

Sigue STARLINK-34610 en tiempo real con AllMySat

Download on the App Store